Skip Page Navigation
NASA JPL Caltech
NASA Logo - Jet Propulsion Laboratory + View the NASA Portal
+ Center for Near-Earth Object Studies
JPL Home Earth Solar System Stars & Galaxies Technology
JPL Solar System Dynamics
BODIES ORBITS EPHEMERIDES TOOLS PHYSICAL DATA DISCOVERY FAQ SITE MAP
IMPORTANT: The SSD Announcement email list is now available. Major changes are coming in the near future, including possible hostname and/or URL changes. To be notified of such changes, subscribe to this email list.

Please visit this page for more details.


JPL Small-Body Database Browser
Search: [ help ]  
324627 (2007 BW5)
Classification: Main-belt Asteroid          SPK-ID: 2324627
Ephemeris | Orbit Diagram | Orbital Elements | Mission Design | Physical Parameters | Discovery Circumstances | Close-Approach Data ]

[ show orbit diagram ]
Orbital Elements at Epoch 2458600.5 (2019-Apr-27.0) TDB
Reference: JPL 6 (heliocentric ecliptic J2000)
 Element Value Uncertainty (1-sigma)   Units 
e .2848862536545778 7.8349e-08  
a 3.144370154174553 4.7564e-08 au
q 2.248582320848498 2.5727e-07 au
i 24.76265341909007 1.4637e-05 deg
node 282.4550534586032 2.2843e-05 deg
peri 113.1084917233674 5.266e-05 deg
M 125.8322933435159 3.4659e-05 deg
tp 2457888.649923527887
(2017-May-15.14992353)
0.0001923 TDB
period 2036.568044026405
5.58
4.621e-05
1.265e-07
d
yr
n .1767679705354998 4.0109e-09 deg/d
Q 4.040157987500609 6.1114e-08 au
  Orbit Determination Parameters
   # obs. used (total)      94  
   data-arc span      4455 days (12.20 yr)  
   first obs. used      2005-09-16  
   last obs. used      2017-11-27  
   planetary ephem.      DE431  
   SB-pert. ephem.      SB431-N16  
   condition code      0  
   norm. resid. RMS      .5756  
   source      ORB  
   producer      Otto Matic  
   solution date      2017-Dec-07 18:21:31  

Additional Information
 Earth MOID = 1.37122 au 
 Jupiter MOID = 1.80871 au 
 T_jup = 3.008 
[ show covariance matrix ]

Ephemeris | Orbit Diagram | Orbital Elements | Mission Design | Physical Parameters | Discovery Circumstances | Close-Approach Data ]

Physical Parameter Table
Parameter Symbol Value Units Sigma Reference Notes
absolute magnitude H 15.7   n/a MPO225314  

324627 (2007 BW5)          Discovered 2007-Jan-17 by NEAT at Palomar
Reference: 20120406/Numbers.arcLast Updated: 2012-04-09

[ show close-approach data ]
Alternate Designations
 2007 BW5 = 2005 SL258 
Ephemeris | Orbit Diagram | Orbital Elements | Mission Design | Physical Parameters | Discovery Circumstances | Close-Approach Data ]
ABOUT SSD CREDITS/AWARDS PRIVACY/COPYRIGHT GLOSSARY LINKS
FirstGov
(server date/time)  
NASA Home Page
Site Manager:   Ryan S. Park
Webmaster  Alan B. Chamberlin